Jaffrey, NH

3:04 PM EDT on October 14, 2019 (GMT -0400)
Jaffrey Airport-Silver Ranch

Weather History for KAFN - September, 2019

Change the Weather History Date:

Sunday, September 22, 2019

  Actual Average Record
Temperature  
Mean Temperature 66 °F -  
Max Temperature 82 °F 65 °F 82 °F (2016)
Min Temperature 51 °F 45 °F 35 °F (1997)
Cooling Degree Days 2    
Growing Degree Days 16 (Base 50)    
Moisture  
Dew Point 56 °F    
Average Humidity 69    
Maximum Humidity 93    
Minimum Humidity 40    
Precipitation  
Precipitation 0.00 in - - ()
Sea Level Pressure  
Sea Level Pressure 30.11 in    
Wind  
Wind Speed 4 mph (SSW)    
Max Wind Speed 9 mph    
Max Gust Speed -    
Visibility 10 miles    
Events      
Averages and records for this station are not official NWS values.
T = Trace of Precipitation, MM = Missing Value Source: NWS Daily Summary

Daily Weather History Graph

Daily Weather History Graph

Search for Another Location

Airport or City:

Astronomy

Sep. 22, 2019 Rise Set
Actual Time 6:35 AM EDT 6:45 PM EDT
Civil Twilight 6:06 AM EDT 7:13 PM EDT
Nautical Twilight 5:33 AM EDT 7:47 PM EDT
Astronomical Twilight 4:59 AM EDT 8:20 PM EDT
Moon No Moon Rise 2:47 PM EDT (9/22)
Length of Visible Light 13h 07m
Length of Day
12h 10m
Last Quarter, 44% of the Moon is Illuminated
Sep 22
Last Quarter
Sep 28
New
Oct 5
First Quarter
Oct 13
Full
Oct 21
Last Quarter

Hourly Weather History & Observations

Time (EDT) Temp. Heat Index Dew Point Humidity Pressure Visibility Wind Dir Wind Speed Gust Speed Precip Events Conditions
12:52 AM 55.9 °F - 53.1 °F 90% 30.20 in 10.0 mi Calm Calm - N/A   Clear
1:52 AM 55.0 °F - 53.1 °F 93% 30.20 in 10.0 mi South 3.5 mph - N/A   Clear
2:52 AM 54.0 °F - 51.1 °F 90% 30.19 in 10.0 mi Calm Calm - N/A   Clear
3:52 AM 53.1 °F - 50.0 °F 89% 30.19 in 8.0 mi Calm Calm - N/A   Clear
4:52 AM 52.0 °F - 50.0 °F 93% 30.18 in 10.0 mi South 4.6 mph - N/A   Clear
5:52 AM 51.1 °F - 48.9 °F 92% 30.19 in 10.0 mi Calm Calm - N/A   Clear
6:52 AM 54.0 °F - 52.0 °F 93% 30.20 in 5.0 mi South 5.8 mph - N/A   Clear
7:52 AM 55.0 °F - 53.1 °F 93% 30.19 in 8.0 mi South 4.6 mph - N/A   Clear
8:52 AM 64.0 °F - 57.9 °F 80% 30.19 in 10.0 mi Variable 4.6 mph - N/A   Clear
9:52 AM 66.9 °F - 55.0 °F 66% 30.17 in 10.0 mi South 9.2 mph - N/A   Clear
10:52 AM 72.0 °F - 55.0 °F 55% 30.17 in 10.0 mi Variable 4.6 mph - N/A   Clear
11:52 AM 77.0 °F - 55.0 °F 47% 30.14 in 10.0 mi Variable 6.9 mph - N/A   Clear
12:52 PM 79.0 °F - 53.1 °F 40% 30.12 in 10.0 mi SW 9.2 mph - N/A   Clear
1:52 PM 81.0 °F 81.0 °F 57.0 °F 44% 30.11 in 10.0 mi SSW 8.1 mph - N/A   Clear
2:52 PM 82.0 °F 81.7 °F 57.0 °F 42% 30.08 in 10.0 mi WSW 5.8 mph - N/A   Clear
3:52 PM 82.0 °F 82.0 °F 57.9 °F 44% 30.05 in 10.0 mi SSW 8.1 mph - N/A   Clear
4:52 PM 81.0 °F 81.3 °F 59.0 °F 47% 30.05 in 10.0 mi SW 8.1 mph - N/A   Clear
5:52 PM 79.0 °F - 60.1 °F 52% 30.04 in 10.0 mi SSW 6.9 mph - N/A   Clear
6:52 PM 75.0 °F - 61.0 °F 62% 30.03 in 10.0 mi South 4.6 mph - N/A   Clear
7:52 PM 69.1 °F - 61.0 °F 75% 30.03 in 10.0 mi South 4.6 mph - N/A   Clear
8:52 PM 73.0 °F - 60.1 °F 64% 30.03 in 10.0 mi SW 5.8 mph - N/A   Clear
9:52 PM 71.1 °F - 60.1 °F 68% 30.01 in 10.0 mi SSW 5.8 mph - N/A   Clear
10:52 PM 70.0 °F - 60.1 °F 71% 29.99 in 10.0 mi SSW 8.1 mph - N/A   Clear
11:52 PM 69.1 °F - 60.1 °F 73% 29.98 in 10.0 mi SSW 8.1 mph - N/A   Clear